Ann Arbor, MI

11:26 PM EDT on August 28, 2016 (GMT -0400)
Ann Arbor Municipal

Weather History for KARB - August, 2013

Change the Weather History Date:

Saturday, August 17, 2013

  Actual Average Record
Temperature  
Mean Temperature 63 °F -  
Max Temperature 79 °F 76 °F 87 °F (1999)
Min Temperature 48 °F 53 °F 48 °F (2004)
Degree Days  
Heating Degree Days 2    
Growing Degree Days 13 (Base 50)    
Moisture  
Dew Point 53 °F    
Average Humidity 86    
Maximum Humidity 100    
Minimum Humidity 42    
Precipitation  
Precipitation 0.00 in - - ()
Sea Level Pressure  
Sea Level Pressure 30.23 in    
Wind  
Wind Speed 1 mph (ESE)    
Max Wind Speed 9 mph    
Max Gust Speed -    
Visibility 5 miles    
Events Fog    
Averages and records for this station are not official NWS values.
T = Trace of Precipitation, MM = Missing Value Source: NWS Daily Summary

Daily Weather History Graph

Daily Weather History Graph

Search for Another Location

Airport or City:

Trip Planner

Search our weather history database for the weather conditions in past years. The results will help you decide how hot, cold, wet, or windy it might be!

Date:

Astronomy

Aug. 17, 2013 Rise Set
Actual Time 6:44 AM EDT 8:32 PM EDT
Civil Twilight 6:14 AM EDT 9:02 PM EDT
Nautical Twilight 5:38 AM EDT 9:38 PM EDT
Astronomical Twilight 4:58 AM EDT 10:17 PM EDT
Moon 5:48 PM EDT (8/17) 2:44 AM EDT (8/17)
Length of Visible Light 14h 47m
Length of Day
13h 47m
Waxing Gibbous, 84% of the Moon is Illuminated
Aug 17
Waxing Gibbous
Aug 20
Full
Aug 28
Last Quarter
Sep 5
New
Sep 12
First Quarter

Hourly Weather History & Observations

Time (EDT) Temp. Dew Point Humidity Pressure Visibility Wind Dir Wind Speed Gust Speed Precip Events Conditions
12:53 AM 55.0 °F 54.0 °F 96% 30.22 in 4.0 mi Calm Calm - N/A   Clear
1:53 AM 54.0 °F 54.0 °F 100% 30.22 in 3.0 mi Calm Calm - N/A   Scattered Clouds
2:05 AM 53.6 °F 53.6 °F 100% 30.23 in 2.0 mi Calm Calm - N/A   Partly Cloudy
2:14 AM 55.4 °F 53.6 °F 94% 30.23 in 9.0 mi Calm Calm - N/A   Partly Cloudy
2:21 AM 53.6 °F 51.8 °F 94% 30.23 in 1.5 mi Calm Calm - N/A   Clear
2:25 AM 53.6 °F 51.8 °F 94% 30.23 in 0.8 mi Calm Calm - N/A   Clear
2:32 AM 53.6 °F 51.8 °F 94% 30.23 in 1.8 mi Calm Calm - N/A   Clear
2:34 AM 53.6 °F 51.8 °F 94% 30.23 in 3.0 mi Calm Calm - N/A   Clear
2:53 AM 52.0 °F 52.0 °F 100% 30.23 in 1.8 mi Calm Calm - N/A   Clear
2:56 AM 53.6 °F 51.8 °F 94% 30.23 in 0.8 mi Calm Calm - N/A   Clear
3:31 AM 51.8 °F 51.8 °F 100% 30.22 in 1.8 mi Calm Calm - N/A   Clear
3:38 AM 53.6 °F 51.8 °F 94% 30.22 in 9.0 mi Calm Calm - N/A   Clear
3:53 AM 52.0 °F 51.1 °F 97% 30.22 in 10.0 mi Calm Calm - N/A   Clear
4:01 AM 51.8 °F 50.0 °F 94% 30.22 in 1.2 mi Calm Calm - N/A   Clear
4:09 AM 51.8 °F 50.0 °F 94% 30.22 in 0.2 mi Calm Calm - N/A Fog Fog
4:31 AM 51.8 °F 50.0 °F 94% 30.23 in 1.2 mi Calm Calm - N/A   Clear
4:38 AM 50.0 °F 50.0 °F 100% 30.23 in 3.0 mi Calm Calm - N/A   Clear
4:53 AM 48.9 °F 48.9 °F 100% 30.23 in 1.2 mi Calm Calm - N/A   Clear
5:01 AM 50.0 °F 48.2 °F 94% 30.23 in 0.5 mi Calm Calm - N/A Fog Fog
5:19 AM 50.0 °F 48.2 °F 94% 30.23 in 1.5 mi Calm Calm - N/A   Clear
5:26 AM 51.8 °F 50.0 °F 94% 30.24 in 10.0 mi Calm Calm - N/A   Clear
5:37 AM 50.0 °F 48.2 °F 94% 30.24 in 1.5 mi Calm Calm - N/A   Clear
5:39 AM 50.0 °F 48.2 °F 94% 30.24 in 0.8 mi Calm Calm - N/A   Clear
5:53 AM 50.0 °F 50.0 °F 100% 30.24 in 1.2 mi Calm Calm - N/A   Clear
5:55 AM 50.0 °F 48.2 °F 94% 30.24 in 2.5 mi Calm Calm - N/A   Clear
6:03 AM 50.0 °F 48.2 °F 94% 30.24 in 8.0 mi Calm Calm - N/A   Clear
6:36 AM 48.2 °F 48.2 °F 100% 30.25 in 1.8 mi Calm Calm - N/A   Clear
6:38 AM 48.2 °F 48.2 °F 100% 30.25 in 0.5 mi Calm Calm - N/A Fog Fog
6:53 AM 50.0 °F 48.9 °F 96% 30.25 in 0.2 mi Calm Calm - N/A Fog Fog
7:17 AM 50.0 °F 50.0 °F 100% 30.27 in 2.0 mi Calm Calm - N/A   Clear
7:24 AM 48.2 °F 48.2 °F 100% 30.27 in 9.0 mi Calm Calm - N/A   Clear
7:53 AM 55.0 °F 54.0 °F 96% 30.26 in 10.0 mi Calm Calm - N/A   Clear
8:53 AM 64.0 °F 55.9 °F 75% 30.27 in 10.0 mi Calm Calm - N/A   Clear
9:53 AM 71.1 °F 57.0 °F 61% 30.27 in 10.0 mi East 4.6 mph - N/A   Clear
10:53 AM 73.0 °F 55.9 °F 55% 30.27 in 10.0 mi NE 4.6 mph - N/A   Clear
11:53 AM 75.0 °F 55.9 °F 51% 30.26 in 10.0 mi East 5.8 mph - N/A   Clear
12:53 PM 77.0 °F 55.9 °F 48% 30.26 in 10.0 mi Variable 4.6 mph - N/A   Partly Cloudy
1:53 PM 77.0 °F 55.0 °F 47% 30.24 in 10.0 mi ESE 9.2 mph - N/A   Partly Cloudy
2:53 PM 78.1 °F 54.0 °F 43% 30.23 in 10.0 mi East 6.9 mph - N/A   Partly Cloudy
3:53 PM 78.1 °F 54.0 °F 43% 30.22 in 10.0 mi ESE 8.1 mph - N/A   Clear
4:53 PM 78.1 °F 53.1 °F 42% 30.22 in 10.0 mi SSE 8.1 mph - N/A   Clear
5:53 PM 77.0 °F 53.1 °F 43% 30.21 in 10.0 mi SE 6.9 mph - N/A   Clear
6:53 PM 75.9 °F 55.0 °F 48% 30.20 in 10.0 mi SSE 6.9 mph - N/A   Clear
7:53 PM 72.0 °F 59.0 °F 64% 30.20 in 10.0 mi South 5.8 mph - N/A   Clear
8:53 PM 64.9 °F 59.0 °F 81% 30.20 in 8.0 mi Calm Calm - N/A   Clear
9:53 PM 60.1 °F 57.9 °F 93% 30.21 in 10.0 mi Calm Calm - N/A   Clear
10:53 PM 59.0 °F 57.9 °F 96% 30.22 in 6.0 mi Calm Calm - N/A   Clear
11:13 PM 57.2 °F 57.2 °F 100% 30.22 in 1.8 mi Calm Calm - N/A   Clear
11:16 PM 57.2 °F 55.4 °F 94% 30.22 in 0.8 mi Calm Calm - N/A   Clear
11:36 PM 59.0 °F 57.2 °F 94% 30.22 in 1.8 mi Calm Calm - N/A   Clear
11:43 PM 57.2 °F 57.2 °F 100% 30.22 in 3.0 mi Calm Calm - N/A   Clear
11:46 PM 57.2 °F 55.4 °F 94% 30.22 in 1.8 mi Calm Calm - N/A   Clear
11:48 PM 57.2 °F 55.4 °F 94% 30.22 in 0.8 mi Calm Calm - N/A   Clear
11:53 PM 55.9 °F 55.0 °F 97% 30.21 in 0.2 mi Calm Calm - N/A Fog Fog